Houston Hull, TX

3:16 PM CST on December 14, 2019 (GMT -0600)
Sugar Land Municipal-Hull

Weather History for KSGR - October, 2019

Change the Weather History Date:

Wednesday, October 9, 2019

  Actual Average Record
Temperature  
Mean Temperature 78 °F -  
Max Temperature 90 °F 83 °F 96 °F (1962)
Min Temperature 66 °F 60 °F 42 °F (1952)
Cooling Degree Days 12    
Growing Degree Days 28 (Base 50)    
Moisture  
Dew Point 71 °F    
Average Humidity 79    
Maximum Humidity 97    
Minimum Humidity 55    
Precipitation  
Precipitation 0.00 in - - ()
Sea Level Pressure  
Sea Level Pressure 29.93 in    
Wind  
Wind Speed 6 mph (SE)    
Max Wind Speed 17 mph    
Max Gust Speed 21 mph    
Visibility 9 miles    
Events      
Averages and records for this station are not official NWS values.
T = Trace of Precipitation, MM = Missing Value Source: NWS Daily Summary

Daily Weather History Graph

Daily Weather History Graph

Search for Another Location

Airport or City:

Astronomy

Oct. 09, 2019 Rise Set
Actual Time 7:20 AM CDT 6:58 PM CDT
Civil Twilight 6:56 AM CDT 7:22 PM CDT
Nautical Twilight 6:28 AM CDT 7:50 PM CDT
Astronomical Twilight 6:01 AM CDT 8:18 PM CDT
Moon 5:08 PM CDT (10/9) 3:33 AM CDT (10/9)
Length of Visible Light 12h 26m
Length of Day
11h 38m
Waxing Gibbous, 85% of the Moon is Illuminated
Oct 9
Waxing Gibbous
Oct 13
Full
Oct 21
Last Quarter
Oct 27
New
Nov 4
First Quarter

Hourly Weather History & Observations

Time (CDT) Temp. Heat Index Dew Point Humidity Pressure Visibility Wind Dir Wind Speed Gust Speed Precip Events Conditions
12:53 AM 71.1 °F - 69.1 °F 93% 29.99 in 10.0 mi SE 5.8 mph - N/A   Clear
1:53 AM 72.0 °F - 69.1 °F 91% 29.98 in 10.0 mi ESE 4.6 mph - N/A   Clear
2:53 AM 72.0 °F - 69.1 °F 91% 29.97 in 10.0 mi Calm Calm - N/A   Clear
3:53 AM 71.1 °F - 69.1 °F 93% 29.96 in 10.0 mi East 3.5 mph - N/A   Clear
4:53 AM 66.9 °F - 66.0 °F 97% 29.96 in 7.0 mi Calm Calm - N/A   Clear
5:53 AM 68.0 °F - 66.9 °F 96% 29.96 in 7.0 mi ENE 3.5 mph - N/A   Clear
6:53 AM 66.9 °F - 66.0 °F 97% 29.97 in 6.0 mi NE 3.5 mph - N/A   Clear
7:53 AM 70.0 °F - 69.1 °F 97% 29.98 in 5.0 mi NE 3.5 mph - N/A   Scattered Clouds
8:53 AM 75.0 °F - 71.1 °F 87% 29.98 in 7.0 mi East 4.6 mph - N/A   Clear
9:53 AM 79.0 °F - 71.1 °F 77% 29.99 in 10.0 mi East 5.8 mph - N/A   Clear
10:53 AM 81.0 °F 85.2 °F 72.0 °F 74% 29.99 in 10.0 mi SE 8.1 mph - N/A   Partly Cloudy
11:53 AM 84.9 °F 91.4 °F 73.0 °F 67% 29.98 in 10.0 mi SSE 10.4 mph - N/A   Scattered Clouds
12:53 PM 86.0 °F 92.2 °F 72.0 °F 63% 29.96 in 10.0 mi Variable 3.5 mph - N/A   Mostly Cloudy
1:53 PM 89.1 °F 97.0 °F 73.0 °F 59% 29.92 in 10.0 mi South 10.4 mph - N/A   Mostly Cloudy
2:53 PM 89.1 °F 95.0 °F 71.1 °F 55% 29.88 in 10.0 mi SW 4.6 mph - N/A   Scattered Clouds
3:53 PM 89.1 °F 96.0 °F 72.0 °F 57% 29.87 in 10.0 mi SSE 11.5 mph - N/A   Partly Cloudy
4:53 PM 87.1 °F 92.8 °F 71.1 °F 59% 29.86 in 10.0 mi SE 10.4 mph - N/A   Partly Cloudy
5:53 PM 86.0 °F 92.2 °F 72.0 °F 63% 29.86 in 10.0 mi SSE 15.0 mph - N/A   Partly Cloudy
6:53 PM 82.9 °F 88.8 °F 73.0 °F 72% 29.86 in 10.0 mi SSE 17.3 mph 20.7 mph N/A   Partly Cloudy
7:53 PM 80.1 °F 83.8 °F 72.0 °F 76% 29.88 in 10.0 mi SSE 12.7 mph - N/A   Clear
8:53 PM 79.0 °F - 72.0 °F 79% 29.89 in 10.0 mi SSE 10.4 mph - N/A   Clear
9:53 PM 78.1 °F - 72.0 °F 81% 29.91 in 10.0 mi SSE 9.2 mph - N/A   Clear
10:53 PM 77.0 °F - 72.0 °F 84% 29.91 in 10.0 mi SSE 9.2 mph - N/A   Clear
11:53 PM 77.0 °F - 72.0 °F 84% 29.91 in 10.0 mi SE 8.1 mph - N/A   Clear